Clines Corner, NM

11:47 PM MDT on July 27, 2017 (GMT -0600)
Clines Corner

Weather History for KCQC - September, 2013

Change the Weather History Date:

Wednesday, September 18, 2013

  Actual Average (KSAF) Record (KSAF)
Temperature  
Mean Temperature 64 °F -  
Max Temperature 75 °F 78 °F 91 °F (2010)
Min Temperature 55 °F 42 °F 34 °F (2006)
Degree Days  
Heating Degree Days 2    
Growing Degree Days 14 (Base 50)    
Moisture  
Dew Point 54 °F    
Average Humidity 75    
Maximum Humidity 93    
Minimum Humidity 46    
Precipitation  
Precipitation 0.00 in - - ()
Sea Level Pressure  
Sea Level Pressure 29.92 in    
Wind  
Wind Speed 12 mph (SW)    
Max Wind Speed 23 mph    
Max Gust Speed 26 mph    
Visibility 10 miles    
Events      
Averages and records for this station are not official NWS values.
T = Trace of Precipitation, MM = Missing Value Source: NWS Daily Summary

Daily Weather History Graph

Daily Weather History Graph

Search for Another Location

Airport or City:

Trip Planner

Search our weather history database for the weather conditions in past years. The results will help you decide how hot, cold, wet, or windy it might be!

Date:

Astronomy

Sep. 18, 2013 Rise Set
Actual Time 6:47 AM MDT 7:04 PM MDT
Civil Twilight 6:22 AM MDT 7:30 PM MDT
Nautical Twilight 5:52 AM MDT 7:59 PM MDT
Astronomical Twilight 5:22 AM MDT 8:29 PM MDT
Moon 6:30 PM MDT (9/18) 5:53 AM MDT (9/18)
Length of Visible Light 13h 07m
Length of Day
12h 16m
Waxing Gibbous, 99% of the Moon is Illuminated
Sep 18
Waxing Gibbous
Sep 19
Full
Sep 26
Last Quarter
Oct 4
New
Oct 11
First Quarter

Hourly Weather History & Observations

Time (MDT) Temp. Dew Point Humidity Pressure Visibility Wind Dir Wind Speed Gust Speed Precip Events Conditions
12:53 AM 55.9 °F 54.0 °F 93% 29.94 in 10.0 mi SSW 8.1 mph - N/A   Partly Cloudy
1:53 AM 57.0 °F 54.0 °F 89% 29.92 in 10.0 mi SSW 13.8 mph - N/A   Clear
2:53 AM 57.0 °F 55.0 °F 93% 29.90 in 10.0 mi SW 13.8 mph - N/A   Clear
3:53 AM 57.0 °F 55.0 °F 93% 29.89 in 10.0 mi SW 12.7 mph - N/A   Clear
4:53 AM 55.9 °F 54.0 °F 93% 29.88 in 10.0 mi WSW 11.5 mph - N/A   Clear
5:53 AM 55.9 °F 53.1 °F 90% 29.90 in 10.0 mi WSW 13.8 mph - N/A   Clear
6:53 AM 55.9 °F 53.1 °F 90% 29.93 in 10.0 mi SW 15.0 mph - N/A   Clear
7:53 AM 57.0 °F 54.0 °F 89% 29.96 in 10.0 mi WSW 13.8 mph - N/A   Clear
8:53 AM 60.1 °F 55.0 °F 83% 29.95 in 10.0 mi SW 23.0 mph 26.5 mph N/A   Clear
9:53 AM 64.0 °F 55.9 °F 75% 29.95 in 10.0 mi SW 18.4 mph - N/A   Clear
10:53 AM 66.9 °F 57.0 °F 70% 29.94 in 10.0 mi WSW 17.3 mph - N/A   Partly Cloudy
11:53 AM 70.0 °F 55.9 °F 61% 29.91 in 10.0 mi SW 13.8 mph - N/A   Scattered Clouds
12:24 PM 69.8 °F 55.4 °F 60% 30.17 in 10.0 mi SW 12.7 mph - N/A   Mostly Cloudy
12:36 PM 71.6 °F 55.4 °F 57% 30.17 in 10.0 mi SSW 11.5 mph - N/A   Mostly Cloudy
12:53 PM 71.1 °F 55.0 °F 57% 29.89 in 10.0 mi WSW 16.1 mph 21.9 mph N/A   Mostly Cloudy
1:53 PM 72.0 °F 55.0 °F 55% 29.87 in 10.0 mi WSW 15.0 mph - N/A   Mostly Cloudy
2:53 PM 71.1 °F 52.0 °F 51% 29.87 in 10.0 mi SSW 15.0 mph - N/A   Overcast
3:53 PM 71.1 °F 53.1 °F 53% 29.84 in 10.0 mi SW 6.9 mph - N/A   Overcast
4:53 PM 72.0 °F 50.0 °F 46% 29.83 in 10.0 mi SSW 10.4 mph - N/A   Partly Cloudy
5:53 PM 69.1 °F 51.1 °F 53% 29.84 in 10.0 mi SW 11.5 mph - N/A   Scattered Clouds
6:53 PM 64.0 °F 52.0 °F 65% 29.86 in 10.0 mi WSW 5.8 mph - N/A   Clear
7:53 PM 61.0 °F 52.0 °F 72% 29.88 in 10.0 mi WSW 8.1 mph - N/A   Clear
8:53 PM 60.1 °F 53.1 °F 78% 29.89 in 10.0 mi SSW 9.2 mph - N/A   Mostly Cloudy
9:53 PM 59.0 °F 57.0 °F 93% 29.88 in 10.0 mi South 10.4 mph - N/A   Clear
10:53 PM 59.0 °F 55.9 °F 90% 29.88 in 10.0 mi SSW 8.1 mph - N/A   Partly Cloudy
11:53 PM 57.9 °F 55.0 °F 90% 29.86 in 10.0 mi South 8.1 mph - N/A   Clear